Weather History for Beverly, MA

Change the Weather History Date:

Friday, March 15, 2013

  Actual Average Record
Temperature  
Mean Temperature 29 °F -  
Max Temperature 41 °F 40 °F 57 °F (1981)
Min Temperature 19 °F 25 °F 15 °F (1991)
Degree Days  
Heating Degree Days 36    
Moisture  
Dew Point 10 °F    
Average Humidity 45    
Maximum Humidity 70    
Minimum Humidity 25    
Precipitation  
Precipitation 0.00 in - - ()
Sea Level Pressure  
Sea Level Pressure 29.74 in    
Wind  
Wind Speed 13 mph (WNW)    
Max Wind Speed 22 mph    
Max Gust Speed 30 mph    
Visibility 10 miles    
Events      
Averages and records for this station are not official NWS values.
T = Trace of Precipitation, MM = Missing Value Source: NWS Daily Summary

Daily Weather History Graph

Daily Weather History Graph

Search for Another Location

Airport:

Trip Planner

Search our weather history database for the weather conditions in past years. The results will help you decide how hot, cold, wet, or windy it might be!

Date:

Astronomy

Mar. 15, 2013 Rise Set
Actual Time 6:55 AM EDT 6:50 PM EDT
Civil Twilight 6:27 AM EDT 7:18 PM EDT
Nautical Twilight 5:54 AM EDT 7:51 PM EDT
Astronomical Twilight 5:21 AM EDT 8:24 PM EDT
Moon 8:37 AM EDT (3/15) 11:07 PM EDT (3/15)
Length of Visible Light 12h 51m
Length of Day
11h 55m
Waxing Crescent, 15% of the Moon is Illuminated
Mar 15
Waxing Crescent
Mar 19
First Quarter
Mar 27
Full
Apr 3
Last Quarter
Apr 10
New

Hourly Weather History & Observations

Time (EDT) Temp. Windchill Dew Point Humidity Pressure Visibility Wind Dir Wind Speed Gust Speed Precip Events Conditions
12:53 AM 21.9 °F 9.8 °F 5.0 °F 48% 29.81 in 10.0 mi NW 12.7 mph 20.7 mph N/A   Partly Cloudy
1:53 AM 21.9 °F 9.2 °F 6.1 °F 51% 29.82 in 10.0 mi NW 13.8 mph - N/A   Overcast
2:53 AM 21.0 °F 5.7 °F 3.9 °F 48% 29.82 in 10.0 mi WNW 19.6 mph 29.9 mph N/A   Partly Cloudy
3:53 AM 21.0 °F 7.1 °F 5.0 °F 50% 29.81 in 10.0 mi NW 16.1 mph 23.0 mph N/A   Clear
4:53 AM 19.4 °F 2.8 °F 3.2 °F 49% 29.82 in 10.0 mi NW 21.9 mph 28.8 mph N/A   Clear
5:53 AM 19.9 °F 4.8 °F 1.9 °F 46% 29.83 in 10.0 mi NW 18.4 mph 25.3 mph N/A   Clear
6:53 AM 19.9 °F 10.1 °F 3.0 °F 48% 29.84 in 10.0 mi NW 8.1 mph 20.7 mph N/A   Clear
7:53 AM 21.0 °F 10.6 °F 3.9 °F 48% 29.85 in 10.0 mi NW 9.2 mph - N/A   Clear
8:53 AM 23.0 °F 9.6 °F 3.9 °F 44% 29.84 in 10.0 mi NW 16.1 mph 21.9 mph N/A   Clear
9:53 AM 25.0 °F 13.1 °F 5.0 °F 43% 29.83 in 10.0 mi WNW 13.8 mph 24.2 mph N/A   Clear
10:53 AM 27.0 °F 15.6 °F 5.0 °F 39% 29.81 in 10.0 mi West 13.8 mph 20.7 mph N/A   Scattered Clouds
11:53 AM 30.0 °F 22.4 °F 5.0 °F 35% 29.80 in 10.0 mi West 8.1 mph 17.3 mph N/A   Scattered Clouds
12:53 PM 33.1 °F 26.9 °F 6.1 °F 32% 29.76 in 10.0 mi West 6.9 mph - N/A   Partly Cloudy
1:53 PM 35.1 °F 26.9 °F 5.0 °F 28% 29.72 in 10.0 mi WSW 11.5 mph - N/A   Mostly Cloudy
2:53 PM 39.0 °F 31.4 °F 6.1 °F 26% 29.67 in 10.0 mi SW 12.7 mph 19.6 mph N/A   Partly Cloudy
3:53 PM 39.9 °F 31.8 °F 6.1 °F 25% 29.65 in 10.0 mi West 15.0 mph 20.7 mph N/A   Scattered Clouds
4:53 PM 39.0 °F 32.8 °F 12.0 °F 33% 29.62 in 10.0 mi West 9.2 mph - N/A   Mostly Cloudy
5:53 PM 39.9 °F 32.1 °F 12.9 °F 33% 29.61 in 10.0 mi West 13.8 mph 21.9 mph N/A   Overcast
6:53 PM 37.9 °F 30.9 °F 18.0 °F 45% 29.62 in 10.0 mi West 10.4 mph 18.4 mph N/A   Overcast
7:53 PM 37.0 °F 28.9 °F 21.9 °F 54% 29.64 in 10.0 mi West 12.7 mph 19.6 mph N/A   Overcast
8:53 PM 36.0 °F 30.3 °F 23.0 °F 59% 29.64 in 9.0 mi West 6.9 mph - 0.00 in   Mostly Cloudy
9:53 PM 36.0 °F 29.6 °F 24.1 °F 62% 29.63 in 10.0 mi West 8.1 mph - N/A   Scattered Clouds
10:53 PM 35.1 °F 26.9 °F 25.0 °F 67% 29.63 in 10.0 mi WSW 11.5 mph 20.7 mph N/A   Clear
11:53 PM 34.0 °F 25.5 °F 25.0 °F 70% 29.63 in 10.0 mi West 11.5 mph - N/A   Clear